This is the latest recevied weather packets stored in our database for station/object SP2WM. If no packets are shown the sender has not sent any weather packets the latest 10 day(s).
| Time | Temp. | Humidity | Pressure | Rain* | Wind** | Luminosity | Snow |
|---|---|---|---|---|---|---|---|
| 1778166632 | 11.11° C | 83% | 1011.4 hPa | 1.02 mm | - | - | - |
| 1778166036 | 11.11° C | 83% | 1011.4 hPa | 1.02 mm | - | - | - |
| 1778165436 | 11.11° C | 80% | 1011.7 hPa | 0 mm | - | - | - |
| 1778164833 | 11.67° C | 79% | 1011.6 hPa | 0 mm | - | - | - |
| 1778164235 | 11.67° C | 78% | 1011.7 hPa | 0 mm | - | - | - |
| 1778163639 | 11.67° C | 77% | 1011.4 hPa | 0 mm | - | - | - |
| 1778163039 | 11.67° C | 77% | 1011.5 hPa | 0 mm | - | - | - |
| 1778162436 | 11.67° C | 77% | 1011.4 hPa | 0 mm | - | - | - |
| 1778161837 | 11.67° C | 77% | 1011.3 hPa | 0 mm | - | - | - |
| 1778161236 | 11.67° C | 78% | 1011.2 hPa | 0 mm | - | - | - |
| 1778160641 | 11.67° C | 77% | 1011.3 hPa | 0 mm | - | - | - |
| 1778160040 | 11.67° C | 77% | 1011 hPa | 0 mm | - | - | - |
| 1778159439 | 11.67° C | 77% | 1011.1 hPa | 0 mm | - | - | - |
| 1778158841 | 11.67° C | 77% | 1011.1 hPa | 0 mm | - | - | - |
| 1778158225 | 11.67° C | 78% | 1011.1 hPa | 0 mm | - | - | - |
| 1778157624 | 11.11° C | 78% | 1011.1 hPa | 0 mm | - | - | - |
| 1778157024 | 11.67° C | 78% | 1010.9 hPa | 0 mm | - | - | - |
| 1778156423 | 11.11° C | 80% | 1010.8 hPa | 0 mm | - | - | - |
| 1778155825 | 11.11° C | 78% | 1010.7 hPa | 0 mm | - | - | - |
| 1778155227 | 11.67° C | 77% | 1010.6 hPa | 0 mm | - | - | - |
| 1778154626 | 11.67° C | 76% | 1010.5 hPa | 0 mm | - | - | - |
| 1778154025 | 11.67° C | 78% | 1010.5 hPa | 0 mm | - | - | - |
| 1778153430 | 11.67° C | 79% | 1010.4 hPa | 0 mm | - | - | - |
| 1778152831 | 11.11° C | 81% | 1010.2 hPa | 0 mm | - | - | - |
| 1778152230 | 11.11° C | 81% | 1010.3 hPa | 0 mm | - | - | - |
* Rain latest hour (hover to see other rain measurements)
** Current wind speed in m/s (hover to see current wind gust speed)